Time,TemperatureF,DewpointF,PressureIn,WindDirection,WindDirectionDegrees,WindSpeedMPH,WindSpeedGustMPH,Humidity,HourlyPrecipIn,Conditions,Clouds,dailyrainin,SoftwareType,DateUTC
2013-02-13 00:15:00,31.4,24.4,29.92,SSW,202,0.0,1.0,75,0.00,,---,0.00,VWS V14.01,2013-02-13 05:15:00,
2013-02-13 00:30:00,30.6,24.3,29.92,SSW,202,0.0,0.0,77,0.00,,---,0.00,VWS V14.01,2013-02-13 05:30:00,
2013-02-13 00:45:00,30.2,23.9,29.91,SSW,202,0.0,0.0,77,0.00,,---,0.00,VWS V14.01,2013-02-13 05:45:00,
2013-02-13 01:00:00,29.5,23.8,29.91,SSW,202,0.0,0.0,79,0.00,,---,0.00,VWS V14.01,2013-02-13 06:00:00,
2013-02-13 01:15:00,29.0,23.3,29.92,SSW,202,0.0,0.0,79,0.00,,---,0.00,VWS V14.01,2013-02-13 06:15:00,
2013-02-13 01:30:00,28.9,23.2,29.92,SSW,202,0.0,0.0,79,0.00,,---,0.00,VWS V14.01,2013-02-13 06:30:00,
2013-02-13 01:45:00,28.7,23.3,29.94,SSW,202,0.0,0.0,80,0.00,,---,0.00,VWS V14.01,2013-02-13 06:45:00,
2013-02-13 02:00:00,29.1,23.4,29.95,SSW,202,0.0,1.0,79,0.00,,---,0.00,VWS V14.01,2013-02-13 07:00:00,
2013-02-13 02:15:00,29.0,23.6,29.94,SSW,202,0.0,0.0,80,0.00,,---,0.00,VWS V14.01,2013-02-13 07:15:00,
2013-02-13 02:30:00,28.6,23.2,29.94,SSW,202,0.0,1.0,80,0.00,,---,0.00,VWS V14.01,2013-02-13 07:30:00,
2013-02-13 02:45:00,27.9,22.8,29.94,SSW,202,0.0,0.0,81,0.00,,---,0.00,VWS V14.01,2013-02-13 07:45:00,
2013-02-13 03:00:00,27.5,22.7,29.93,SSW,202,0.0,1.0,82,0.00,,---,0.00,VWS V14.01,2013-02-13 08:00:00,
2013-02-13 03:15:00,27.6,22.5,29.93,SSW,202,0.0,1.0,81,0.00,,---,0.00,VWS V14.01,2013-02-13 08:15:00,
2013-02-13 03:30:00,27.5,22.7,29.93,SSW,202,0.0,1.0,82,0.00,,---,0.00,VWS V14.01,2013-02-13 08:30:00,
2013-02-13 03:45:00,27.3,22.5,29.93,SSW,202,0.0,0.0,82,0.00,,---,0.00,VWS V14.01,2013-02-13 08:45:00,
2013-02-13 04:00:00,27.1,22.4,29.92,SSW,202,0.0,1.0,82,0.00,,---,0.00,VWS V14.01,2013-02-13 09:00:00,
2013-02-13 04:15:00,27.0,22.5,29.92,SSW,202,0.0,1.0,83,0.00,,---,0.00,VWS V14.01,2013-02-13 09:15:00,
2013-02-13 04:30:00,27.0,22.2,29.90,SSW,202,0.0,1.0,82,0.00,,---,0.00,VWS V14.01,2013-02-13 09:30:00,
2013-02-13 04:45:00,26.8,22.3,29.90,SSW,202,0.0,0.0,83,0.00,,---,0.00,VWS V14.01,2013-02-13 09:45:00,
2013-02-13 05:00:00,26.4,22.2,29.90,SSW,202,0.0,0.0,84,0.00,,---,0.00,VWS V14.01,2013-02-13 10:00:00,
2013-02-13 05:15:00,26.4,21.7,29.90,SSW,202,0.0,0.0,82,0.00,,---,0.00,VWS V14.01,2013-02-13 10:15:00,
2013-02-13 05:30:00,26.2,21.8,29.90,SSW,202,0.0,1.0,83,0.00,,---,0.00,VWS V14.01,2013-02-13 10:30:00,
2013-02-13 05:45:00,26.4,22.0,29.90,SSW,202,0.0,1.0,83,0.00,,---,0.00,VWS V14.01,2013-02-13 10:45:00,
2013-02-13 06:00:00,25.8,21.6,29.90,SSW,202,0.0,1.0,84,0.00,,---,0.00,VWS V14.01,2013-02-13 11:00:00,
2013-02-13 06:15:00,25.7,21.5,29.90,SSW,202,0.0,1.0,84,0.00,,---,0.00,VWS V14.01,2013-02-13 11:15:00,
2013-02-13 06:30:00,26.0,21.6,29.90,SSW,202,0.0,1.0,83,0.00,,---,0.00,VWS V14.01,2013-02-13 11:30:00,
2013-02-13 06:45:00,25.7,21.8,29.90,SSW,202,0.0,0.0,85,0.00,,---,0.00,VWS V14.01,2013-02-13 11:45:00,
2013-02-13 07:00:00,24.8,21.2,29.91,SSW,202,0.0,0.0,86,0.00,,---,0.00,VWS V14.01,2013-02-13 12:00:00,
2013-02-13 07:15:00,24.6,21.0,29.91,SSW,202,0.0,0.0,86,0.00,,---,0.00,VWS V14.01,2013-02-13 12:15:00,
2013-02-13 07:41:00,24.6,21.6,29.91,SSW,212,0.0,0.0,88,0.00,,---,0.00,VWS V14.01,2013-02-13 12:41:00,
2013-02-13 07:56:00,24.7,21.7,29.91,SSW,212,0.0,0.0,88,0.00,,---,0.00,VWS V14.01,2013-02-13 12:56:00,
2013-02-13 08:11:00,25.2,22.1,29.91,SSW,212,0.0,0.0,88,0.00,,---,0.00,VWS V14.01,2013-02-13 13:11:00,
2013-02-13 08:26:00,26.3,22.7,29.90,SSW,212,0.0,0.0,86,0.00,,---,0.00,VWS V14.01,2013-02-13 13:26:00,
2013-02-13 08:41:00,27.6,23.1,29.89,SSW,212,0.0,0.0,83,0.00,,---,0.00,VWS V14.01,2013-02-13 13:41:00,
2013-02-13 08:57:00,29.8,23.8,29.89,SSW,212,0.0,0.0,78,0.00,,---,0.00,VWS V14.01,2013-02-13 13:57:00,
2013-02-13 09:12:00,32.0,24.3,29.88,SSW,212,0.0,0.0,73,0.00,,---,0.00,VWS V14.01,2013-02-13 14:12:00,
2013-02-13 09:27:00,33.4,24.3,29.87,SSW,212,2.0,2.0,69,0.00,,---,0.00,VWS V14.01,2013-02-13 14:27:00,
2013-02-13 09:41:00,34.5,24.0,29.87,SSW,212,1.0,3.0,65,0.00,,---,0.00,VWS V14.01,2013-02-13 14:41:00,
2013-02-13 09:58:00,35.5,24.2,29.87,SSW,212,2.0,3.0,63,0.00,,---,0.00,VWS V14.01,2013-02-13 14:58:00,
2013-02-13 10:11:00,36.7,24.1,29.87,SSW,212,1.0,2.0,60,0.00,,---,0.00,VWS V14.01,2013-02-13 15:11:00,
2013-02-13 10:27:00,37.9,24.5,29.85,SSW,212,1.0,4.0,58,0.00,,---,0.00,VWS V14.01,2013-02-13 15:27:00,
2013-02-13 10:46:00,39.5,24.7,29.86,SSW,212,1.0,3.0,55,0.00,,---,0.00,VWS V14.01,2013-02-13 15:46:00,
2013-02-13 10:56:00,39.1,23.9,29.87,SSW,212,1.0,3.0,54,0.00,,---,0.00,VWS V14.01,2013-02-13 15:56:00,
2013-02-13 11:11:00,38.8,23.6,29.88,SSW,212,1.0,3.0,54,0.00,,---,0.00,VWS V14.01,2013-02-13 16:11:00,
2013-02-13 11:27:00,39.6,24.3,29.88,SSW,212,0.0,2.0,54,0.00,,---,0.00,VWS V14.01,2013-02-13 16:27:00,
2013-02-13 11:42:00,40.1,25.2,29.87,SSW,212,0.0,3.0,55,0.00,,---,0.00,VWS V14.01,2013-02-13 16:42:00,
2013-02-13 11:56:00,40.5,25.6,29.86,SSW,213,1.0,4.0,55,0.00,,---,0.00,VWS V14.01,2013-02-13 16:56:00,
2013-02-13 12:11:00,40.7,25.8,29.84,SSW,212,1.0,3.0,55,0.00,,---,0.00,VWS V14.01,2013-02-13 17:11:00,
2013-02-13 12:26:00,40.9,24.6,29.84,SSW,212,0.0,4.0,52,0.00,,---,0.00,VWS V14.01,2013-02-13 17:26:00,
2013-02-13 12:41:00,41.2,25.4,29.82,SSW,212,2.0,3.0,53,0.00,,---,0.00,VWS V14.01,2013-02-13 17:41:00,
2013-02-13 12:57:00,41.1,24.8,29.82,SSW,212,0.0,2.0,52,0.00,,---,0.00,VWS V14.01,2013-02-13 17:57:00,
2013-02-13 13:11:00,41.1,25.7,29.80,SSW,212,1.0,3.0,54,0.00,,---,0.00,VWS V14.01,2013-02-13 18:11:00,
2013-02-13 13:26:00,40.6,25.3,29.78,SSW,212,2.0,4.0,54,0.00,,---,0.00,VWS V14.01,2013-02-13 18:26:00,
2013-02-13 13:41:00,40.8,25.9,29.77,SSW,212,1.0,3.0,55,0.00,,---,0.00,VWS V14.01,2013-02-13 18:41:00,
2013-02-13 13:57:00,41.2,26.3,29.77,SSW,212,0.0,4.0,55,0.00,,---,0.00,VWS V14.01,2013-02-13 18:57:00,
2013-02-13 14:17:00,41.8,25.9,29.77,SSW,212,1.0,3.0,53,0.00,,---,0.00,VWS V14.01,2013-02-13 19:17:00,
2013-02-13 14:26:00,42.4,26.0,29.76,SSW,212,0.0,2.0,52,0.00,,---,0.00,VWS V14.01,2013-02-13 19:26:00,
2013-02-13 14:46:00,42.2,25.9,29.75,SSW,212,1.0,2.0,52,0.00,,---,0.00,VWS V14.01,2013-02-13 19:46:00,
2013-02-13 14:56:00,42.2,25.9,29.75,SSW,212,0.0,1.0,52,0.00,,---,0.00,VWS V14.01,2013-02-13 19:56:00,
2013-02-13 15:11:00,42.1,25.8,29.75,SSW,212,0.0,2.0,52,0.00,,---,0.00,VWS V14.01,2013-02-13 20:11:00,
2013-02-13 15:26:00,41.8,25.9,29.75,SSW,212,0.0,1.0,53,0.00,,---,0.00,VWS V14.01,2013-02-13 20:26:00,
2013-02-13 15:41:00,41.7,25.9,29.74,SSW,212,0.0,2.0,53,0.00,,---,0.00,VWS V14.01,2013-02-13 20:41:00,
2013-02-13 15:57:00,41.6,25.8,29.74,SSW,212,0.0,2.0,53,0.00,,---,0.00,VWS V14.01,2013-02-13 20:57:00,
2013-02-13 16:12:00,41.3,25.9,29.73,SSW,212,0.0,1.0,54,0.00,,---,0.00,VWS V14.01,2013-02-13 21:12:00,
2013-02-13 16:27:00,40.7,26.2,29.73,SSW,212,1.0,2.0,56,0.00,,---,0.00,VWS V14.01,2013-02-13 21:27:00,
2013-02-13 16:41:00,40.4,26.4,29.73,SSW,212,0.0,2.0,57,0.00,,---,0.00,VWS V14.01,2013-02-13 21:41:00,
2013-02-13 16:57:00,39.9,26.3,29.71,SSW,212,0.0,1.0,58,0.00,,---,0.00,VWS V14.01,2013-02-13 21:57:00,
2013-02-13 17:11:00,39.3,26.6,29.71,SSW,212,0.0,1.0,60,0.00,,---,0.00,VWS V14.01,2013-02-13 22:11:00,
2013-02-13 17:26:00,38.4,26.9,29.70,SSW,212,0.0,1.0,63,0.00,,---,0.00,VWS V14.01,2013-02-13 22:26:00,
2013-02-13 17:41:00,37.6,26.2,29.70,SSW,212,0.0,0.0,63,0.00,,---,0.00,VWS V14.01,2013-02-13 22:41:00,
2013-02-13 17:57:00,37.4,26.4,29.70,SSW,213,0.0,0.0,64,0.00,,---,0.00,VWS V14.01,2013-02-13 22:57:00,
2013-02-13 18:11:00,37.2,26.2,29.69,SSW,213,0.0,0.0,64,0.00,,---,0.00,VWS V14.01,2013-02-13 23:11:00,
2013-02-13 18:27:00,37.2,26.5,29.69,SSW,212,0.0,1.0,65,0.00,,---,0.00,VWS V14.01,2013-02-13 23:27:00,
2013-02-13 18:42:00,37.3,26.6,29.68,SSW,212,0.0,1.0,65,0.00,,---,0.00,VWS V14.01,2013-02-13 23:42:00,
2013-02-13 18:57:00,37.1,26.8,29.70,SSW,212,0.0,1.0,66,0.00,,---,0.00,VWS V14.01,2013-02-13 23:57:00,
2013-02-13 19:11:00,36.7,27.1,29.70,SSW,212,0.0,1.0,68,0.00,,---,0.00,VWS V14.01,2013-02-14 00:11:00,
2013-02-13 19:26:00,36.4,26.5,29.71,SSW,212,0.0,0.0,67,0.00,,---,0.00,VWS V14.01,2013-02-14 00:26:00,
2013-02-13 19:41:00,36.3,26.4,29.70,SSW,212,0.0,0.0,67,0.00,,---,0.00,VWS V14.01,2013-02-14 00:41:00,
2013-02-13 19:57:00,36.5,26.6,29.70,SSW,213,0.0,0.0,67,0.00,,---,0.00,VWS V14.01,2013-02-14 00:57:00,
2013-02-13 20:11:00,36.3,26.8,29.70,SSW,212,0.0,1.0,68,0.00,,---,0.00,VWS V14.01,2013-02-14 01:11:00,
2013-02-13 20:26:00,36.4,26.5,29.71,SSW,213,0.0,1.0,67,0.00,,---,0.00,VWS V14.01,2013-02-14 01:26:00,
2013-02-13 20:42:00,35.4,30.2,29.72,SSW,212,0.0,2.0,81,0.00,,---,0.00,VWS V14.01,2013-02-14 01:42:00,
2013-02-13 20:57:00,34.3,30.6,29.72,SSW,212,0.0,1.0,86,0.00,,---,0.00,VWS V14.01,2013-02-14 01:57:00,
2013-02-13 21:11:00,33.4,30.2,29.72,SSW,212,0.0,1.0,88,0.00,,---,0.00,VWS V14.01,2013-02-14 02:11:00,
2013-02-13 21:28:00,32.9,30.3,29.71,SSW,212,0.0,0.0,90,0.00,,---,0.00,VWS V14.01,2013-02-14 02:28:00,
2013-02-13 21:41:00,32.6,30.3,29.71,SSW,212,0.0,0.0,91,0.00,,---,0.00,VWS V14.01,2013-02-14 02:41:00,
2013-02-13 21:56:00,32.5,30.4,29.71,SSW,212,0.0,1.0,92,0.00,,---,0.00,VWS V14.01,2013-02-14 02:56:00,
2013-02-13 22:11:00,32.4,30.3,29.71,SSW,212,0.0,0.0,92,0.00,,---,0.00,VWS V14.01,2013-02-14 03:11:00,
2013-02-13 22:30:00,32.4,30.6,29.71,SSW,212,0.0,1.0,93,0.00,,---,0.00,VWS V14.01,2013-02-14 03:30:00,
2013-02-13 22:43:00,32.3,30.5,29.71,SSW,212,0.0,0.0,93,0.00,,---,0.00,VWS V14.01,2013-02-14 03:43:00,
2013-02-13 22:57:00,32.3,30.5,29.70,SSW,212,0.0,0.0,93,0.00,,---,0.00,VWS V14.01,2013-02-14 03:57:00,
2013-02-13 23:12:00,32.3,30.5,29.70,SSW,212,0.0,1.0,93,0.00,,---,0.00,VWS V14.01,2013-02-14 04:12:00,
2013-02-13 23:27:00,32.3,30.8,29.70,SSW,212,0.0,1.0,94,0.00,,---,0.00,VWS V14.01,2013-02-14 04:27:00,
2013-02-13 23:41:00,32.2,30.7,29.71,SSW,212,0.0,0.0,94,0.00,,---,0.00,VWS V14.01,2013-02-14 04:41:00,